Weather History for KSPG - August, 2014

Change the Weather History Date:

Wednesday, August 27, 2014

  Actual Average Record
Temperature  
Mean Temperature 86 °F -  
Max Temperature 93 °F 90 °F 94 °F (1987)
Min Temperature 80 °F 76 °F 66 °F (1999)
Cooling Degree Days 22    
Growing Degree Days 36 (Base 50)    
Moisture  
Dew Point 71 °F    
Average Humidity 65    
Maximum Humidity 81    
Minimum Humidity 38    
Precipitation  
Precipitation 0.03 in - - ()
Sea Level Pressure  
Sea Level Pressure 29.95 in    
Wind  
Wind Speed 14 mph (ENE)    
Max Wind Speed 22 mph    
Max Gust Speed -    
Visibility 10 miles    
Events Rain    
Averages and records for this station are not official NWS values.
T = Trace of Precipitation, MM = Missing Value Source: NWS Daily Summary

Daily Weather History Graph

Daily Weather History Graph

Search for Another Location

Airport or City:

Trip Planner

Search our weather history database for the weather conditions in past years. The results will help you decide how hot, cold, wet, or windy it might be!

Date:

Astronomy

Aug. 27, 2014 Rise Set
Actual Time 7:06 AM EDT 7:56 PM EDT
Civil Twilight 6:42 AM EDT 8:20 PM EDT
Nautical Twilight 6:14 AM EDT 8:48 PM EDT
Astronomical Twilight 5:45 AM EDT 9:17 PM EDT
Moon 8:48 AM EDT (8/27) 9:04 PM EDT (8/27)
Length of Visible Light 13h 37m
Length of Day
12h 49m
Waxing Crescent, 4% of the Moon is Illuminated
Aug 27
Waxing Crescent
Sep 2
First Quarter
Sep 8
Full
Sep 15
Last Quarter
Sep 24
New

Hourly Weather History & Observations

Time (EDT) Temp. Heat Index Dew Point Humidity Pressure Visibility Wind Dir Wind Speed Gust Speed Precip Events Conditions
12:53 AM 82.0 °F 87.9 °F 73.9 °F 76% 29.95 in 10.0 mi ENE 21.9 mph - N/A   Clear
1:53 AM 82.0 °F 87.4 °F 73.0 °F 74% 29.94 in 10.0 mi ENE 16.1 mph - N/A   Clear
2:53 AM 81.0 °F 85.8 °F 73.0 °F 77% 29.92 in 10.0 mi NE 16.1 mph - N/A   Mostly Cloudy
3:53 AM 81.0 °F 85.8 °F 73.0 °F 77% 29.92 in 10.0 mi ENE 17.3 mph - N/A   Overcast
4:53 AM 80.1 °F 84.2 °F 73.0 °F 79% 29.92 in 10.0 mi ENE 15.0 mph - N/A   Clear
5:53 AM 80.1 °F 84.5 °F 73.9 °F 81% 29.93 in 10.0 mi ENE 16.1 mph - N/A   Scattered Clouds
6:53 AM 80.1 °F 84.5 °F 73.9 °F 81% 29.94 in 10.0 mi East 12.7 mph - N/A   Overcast
7:53 AM 80.1 °F 84.2 °F 73.0 °F 79% 29.96 in 10.0 mi East 11.5 mph - N/A   Mostly Cloudy
8:53 AM 81.0 °F 86.2 °F 73.9 °F 79% 29.97 in 10.0 mi ENE 13.8 mph - N/A   Clear
9:53 AM 82.0 °F 87.9 °F 73.9 °F 76% 29.98 in 10.0 mi ENE 12.7 mph - N/A   Clear
11:53 AM 86.0 °F 92.2 °F 72.0 °F 63% 29.99 in 10.0 mi ENE 8.1 mph - N/A   Clear
12:53 PM 88.0 °F 92.9 °F 70.0 °F 55% 29.98 in 10.0 mi East 5.8 mph - N/A   Clear
1:53 PM 90.0 °F 95.4 °F 70.0 °F 52% 29.95 in 10.0 mi East 4.6 mph - N/A   Clear
2:53 PM 93.0 °F 97.9 °F 69.1 °F 45% 29.94 in 10.0 mi Calm Calm - N/A   Clear
3:53 PM 91.9 °F 95.4 °F 66.9 °F 44% 29.92 in 10.0 mi ENE 4.6 mph - N/A   Clear
4:53 PM 93.0 °F 95.0 °F 64.9 °F 39% 29.91 in 10.0 mi Calm Calm - N/A   Clear
5:53 PM 93.9 °F 96.1 °F 64.9 °F 38% 29.91 in 10.0 mi Calm Calm - N/A   Clear
6:53 PM 91.9 °F 94.1 °F 64.9 °F 41% 29.91 in 10.0 mi Calm Calm - N/A   Partly Cloudy
7:53 PM 88.0 °F 94.7 °F 72.0 °F 59% 29.92 in 10.0 mi North 6.9 mph - N/A   Mostly Cloudy
8:53 PM 87.1 °F 92.8 °F 71.1 °F 59% 29.93 in 10.0 mi North 10.4 mph - N/A   Clear
9:53 PM 87.1 °F 94.5 °F 73.0 °F 63% 29.97 in 10.0 mi ESE 21.9 mph - N/A   Mostly Cloudy
10:00 PM 86.0 °F 93.8 °F 73.9 °F 67% 29.98 in 10.0 mi ESE 19.6 mph - N/A   Mostly Cloudy
10:53 PM 82.9 °F 89.4 °F 73.9 °F 74% 29.98 in 10.0 mi ESE 19.6 mph - 0.00 in Rain Light Rain
11:53 PM 82.9 °F 89.4 °F 73.9 °F 74% 29.99 in 10.0 mi ESE 20.7 mph - 0.03 in   Overcast